RH
69 69 70 71 74 77 81 82 84 88 89 89 89 88 86 86 87 88 89 89 86 83 80 76 71 71 72 71 69 71 71 67 66 66 66 61 58 60 57 55 55 53 51 48 46 45 48 50 49 46 43 41 40 40 42 44 45 45 46 45 43 42 40 39 39 40 43 45 47 50 53 52 52 51 51 50 50 50 52 54 51 49 49 51 52 51 50 47 46 44 42 43 45 50 52 51 52
68 70 73 76 77 80 83 84 86 90 90 89 89 89 88 87 86 85 87 88 85 82 79 75 72 73 73 67 66 68 68 69 65 62 62 58 57 57 55 54 52 50 49 46 44 43 45 47 46 43 41 40 39 39 41 42 42 42 43 42 40 38 37 38 41 44 47 50 53 56 57 58 57 55 54 52 51 54 57 59 58 56 56 57 58 56 55 55 56 55 52 53 54 58 60 59 58
68 71 75 79 81 83 86 86 88 90 90 90 91 90 89 89 85 83 86 86 84 80 78 75 72 74 72 68 69 69 68 69 63 59 60 57 56 54 53 52 50 49 47 45 43 43 43 45 44 42 41 39 38 37 37 37 37 38 38 38 36 35 35 39 45 49 52 55 57 59 59 61 63 59 55 55 55 58 59 60 60 60 60 60 61 59 57 59 63 63 62 61 62 63 65 65 62
72 76 80 82 84 86 87 87 89 91 92 90 91 90 88 88 85 85 86 85 83 79 77 74 72 74 73 72 71 71 70 68 61 59 57 54 54 51 51 51 49 48 47 45 43 42 43 44 43 43 40 36 34 33 33 34 35 36 36 35 33 33 37 43 48 51 54 56 57 58 61 63 66 62 56 57 61 62 60 60 60 62 63 63 64 63 61 61 64 65 64 65 64 65 65 63 60
80 83 84 84 86 87 87 89 90 92 93 90 91 90 87 87 85 86 86 83 80 77 75 72 72 73 75 73 71 72 72 67 61 56 53 51 51 50 51 50 48 47 46 45 43 42 43 44 44 41 37 32 32 32 33 34 35 36 35 33 31 35 41 46 47 50 52 52 54 56 59 62 65 64 58 57 62 63 60 59 60 62 64 64 64 64 65 64 64 63 62 63 62 62 63 62 63
83 84 85 85 87 87 88 90 90 92 90 87 91 89 86 87 86 85 84 80 78 77 75 73 72 74 77 75 73 74 71 66 59 52 50 50 48 48 49 48 46 46 45 44 42 42 43 43 40 37 33 32 32 33 34 34 36 36 35 33 35 41 44 45 46 49 50 49 51 53 56 60 64 66 62 57 59 61 60 57 58 61 64 64 63 63 64 64 61 59 60 61 58 58 61 62 67
81 82 84 86 86 86 88 89 89 91 88 86 90 89 86 87 85 83 82 78 77 75 75 76 72 74 77 74 75 75 69 64 58 50 48 50 48 47 48 46 45 43 41 40 40 39 39 39 37 35 33 33 34 35 35 36 36 37 36 37 40 43 43 43 45 47 47 47 50 52 54 58 61 65 65 62 58 61 62 59 59 61 63 62 62 61 59 58 57 56 61 65 62 61 63 65 68
80 81 83 85 85 84 87 89 90 91 89 87 90 89 86 85 84 83 82 79 77 75 73 74 71 75 76 74 75 72 69 63 56 50 48 49 48 47 47 44 43 39 37 37 38 38 38 39 39 38 37 36 36 36 36 37 37 38 40 42 43 42 42 44 44 44 44 45 49 50 52 55 57 60 67 69 61 60 65 65 63 61 61 61 60 58 56 56 54 55 59 65 68 69 70 69 66
81 82 83 84 85 85 87 88 90 91 90 88 87 88 86 83 84 84 84 80 79 77 74 71 70 75 77 76 74 70 68 60 54 52 48 49 47 45 44 42 41 37 36 38 39 40 40 42 43 42 41 37 35 35 37 38 38 40 42 42 42 42 43 44 43 42 41 43 46 48 51 53 55 56 65 74 65 59 63 64 64 60 60 60 58 58 57 53 50 53 58 63 68 71 73 69 63
80 82 82 83 84 86 88 88 88 91 92 88 87 88 85 83 85 84 82 81 79 77 75 71 72 76 77 77 73 71 68 57 53 53 49 48 46 44 41 40 40 36 36 38 39 41 41 43 44 43 43 36 31 34 38 40 42 43 42 41 42 43 43 44 44 42 41 41 43 46 49 52 54 53 60 73 70 62 60 61 62 60 59 58 55 55 54 51 51 56 60 62 66 69 68 66 63
81 81 81 82 84 86 89 87 88 92 92 88 90 88 84 84 85 85 83 81 78 76 74 72 74 76 77 77 73 71 67 57 54 52 49 47 44 43 39 38 38 35 34 36 38 40 40 41 42 42 39 32 30 37 42 44 45 43 41 41 42 43 43 44 42 40 40 41 43 46 48 51 52 53 59 67 68 64 60 57 59 58 59 59 56 54 52 53 56 60 62 64 65 64 63 64 66
79 80 81 82 83 86 89 88 86 89 89 89 92 87 84 86 86 85 83 80 77 76 75 73 74 74 75 76 72 72 66 58 54 51 48 46 44 42 37 36 36 34 34 35 37 39 40 40 39 36 32 30 35 43 46 46 44 41 41 42 42 43 43 41 39 38 38 39 43 46 48 50 52 55 58 60 62 64 62 57 56 54 56 57 55 53 53 55 57 59 63 64 63 60 59 60 62
77 80 80 80 81 84 88 88 85 86 88 89 90 86 85 87 86 86 82 79 78 77 75 73 71 69 73 73 72 70 64 59 55 51 48 45 44 42 37 36 35 34 34 35 37 38 38 38 34 30 31 36 41 44 46 45 43 41 42 42 42 42 41 37 35 35 36 38 42 45 47 48 51 53 54 57 57 61 64 63 59 54 56 56 53 53 53 56 57 58 61 62 61 58 55 55 56
75 77 79 80 80 81 84 87 85 84 88 89 88 86 87 87 85 85 84 80 77 75 71 70 68 67 71 71 69 67 62 59 54 50 48 45 44 42 38 35 34 34 34 35 36 35 35 33 30 32 37 41 43 45 44 43 42 42 42 41 40 39 36 33 31 32 34 38 41 42 43 45 51 52 53 55 55 60 64 66 64 59 61 59 54 57 55 58 60 59 62 61 61 56 51 51 52
74 75 76 78 78 78 80 84 84 84 87 89 89 87 89 88 84 84 85 81 75 71 69 69 67 65 67 68 65 62 59 57 53 48 46 45 43 42 37 34 34 34 34 34 33 32 31 29 32 38 41 43 44 45 44 42 42 42 41 39 39 37 35 32 31 30 33 39 41 40 43 47 52 53 54 55 57 62 62 63 64 60 58 52 48 53 55 58 60 62 64 64 63 57 52 51 50
70 74 74 75 76 76 76 80 82 84 86 86 86 85 88 88 83 84 85 81 75 72 70 69 66 62 64 67 64 60 58 55 51 47 44 44 43 40 35 32 34 34 34 34 33 32 28 30 37 40 42 45 46 45 43 41 42 41 39 39 39 38 35 33 32 31 35 42 44 45 48 51 52 53 54 56 57 57 55 55 56 53 49 45 44 48 52 54 56 59 61 63 64 61 56 52 50
63 71 74 74 74 74 74 76 79 85 84 82 85 84 87 89 84 84 83 79 75 72 70 68 63 59 61 64 63 60 58 56 50 45 43 42 41 37 31 31 33 33 34 34 32 29 29 34 40 42 42 44 44 45 42 40 42 41 39 40 41 41 38 35 34 35 41 47 46 45 46 47 50 52 53 55 55 53 52 51 48 45 44 46 49 50 52 53 53 56 57 60 63 61 58 54 51
59 69 72 73 73 71 71 73 75 84 85 82 86 86 86 87 85 84 82 79 74 70 69 65 61 57 57 59 62 61 59 56 48 44 42 42 40 34 29 30 31 33 33 33 29 27 32 38 41 43 42 41 43 44 41 40 42 41 39 41 44 46 42 37 36 39 44 45 42 41 41 43 46 49 51 52 52 52 53 53 47 45 46 48 50 51 54 55 55 56 56 57 56 53 50 49 49
60 67 70 71 69 65 65 70 73 81 85 84 86 84 83 85 84 84 82 80 75 70 69 65 62 59 57 57 61 62 60 55 47 44 43 42 39 31 28 29 29 30 30 29 28 30 36 39 40 42 41 40 42 44 41 39 40 40 40 41 45 47 45 42 41 41 43 41 40 40 40 41 43 46 50 51 52 52 54 54 52 49 49 50 50 52 55 56 57 57 56 53 46 39 37 38 39
56 62 68 68 64 61 61 66 71 76 80 83 85 82 82 84 82 83 83 81 77 71 68 66 64 63 60 59 61 62 60 54 47 45 44 42 38 31 28 27 26 26 24 27 30 33 37 39 40 40 39 40 41 43 40 38 36 37 41 44 46 48 48 46 45 43 41 40 41 42 41 41 41 44 48 51 52 52 52 53 52 52 52 51 50 52 56 58 57 56 56 50 41 35 32 31 31
52 59 65 64 60 59 60 64 68 73 77 82 85 82 82 83 80 81 82 82 79 71 69 68 65 63 61 60 61 62 59 53 48 46 44 41 38 32 29 26 25 22 21 28 33 34 37 38 39 37 38 40 40 41 40 37 33 36 44 47 47 49 49 48 46 44 42 42 43 45 44 42 41 42 45 48 50 51 52 52 51 51 52 51 49 50 53 56 55 55 55 50 45 43 39 37 34
50 57 60 61 59 58 58 62 67 71 77 80 83 82 82 82 80 80 80 81 79 72 71 70 65 62 61 60 60 59 57 53 49 47 43 40 38 34 31 27 24 21 22 29 33 36 37 37 38 36 38 39 39 40 38 36 31 35 46 47 47 48 48 47 46 44 44 45 46 47 47 45 43 42 43 45 47 48 52 52 50 50 50 49 47 46 48 52 53 54 54 51 50 50 49 47 44
49 55 55 56 56 55 55 59 63 68 75 79 81 81 82 83 82 81 79 81 79 73 73 72 65 61 62 61 59 57 57 53 49 47 44 41 38 36 33 26 22 21 22 28 32 35 36 37 36 35 37 37 37 38 37 35 30 34 44 46 46 48 46 46 46 45 46 47 47 48 49 48 45 43 43 44 44 45 48 49 49 49 49 47 45 45 46 49 52 53 53 51 52 52 52 52 50
48 54 52 52 53 52 52 56 60 64 71 76 77 78 80 82 83 81 81 82 81 77 73 69 65 62 63 62 58 57 57 53 49 48 45 42 39 36 33 26 22 22 22 26 31 33 35 36 35 35 36 34 35 37 36 35 31 31 41 45 46 47 46 45 46 46 47 48 48 49 49 48 46 44 44 43 44 44 46 46 46 47 48 49 48 48 48 49 51 51 51 51 51 52 53 52 52
45 52 52 50 50 47 47 53 57 60 66 71 74 76 79 82 83 82 82 84 81 78 73 69 66 63 63 62 58 57 57 53 50 49 46 42 39 36 33 28 24 23 21 23 28 31 33 34 34 35 34 33 34 36 36 36 31 29 39 45 44 45 46 46 47 46 47 48 49 48 48 48 47 45 45 44 45 46 48 47 46 46 48 51 53 53 52 51 51 51 52 52 51 52 52 52 51
45 49 50 47 45 41 43 52 56 58 63 67 72 77 81 82 82 82 83 82 79 77 73 70 65 61 60 59 57 57 56 53 49 48 47 42 39 37 33 28 26 24 21 22 26 31 34 34 34 34 33 32 34 37 37 38 32 29 38 44 44 44 46 47 49 48 47 47 47 49 49 49 48 47 47 46 46 46 48 49 49 48 48 51 54 54 54 53 52 52 52 53 52 52 51 50 49
47 46 45 42 39 36 40 49 52 56 61 65 71 78 81 81 81 82 83 81 79 77 74 71 65 60 59 57 57 56 55 52 49 48 48 44 39 37 33 28 27 26 23 23 28 34 36 35 35 34 32 32 34 36 37 39 34 31 38 44 44 44 45 49 50 49 47 47 47 49 51 51 51 51 50 49 46 46 47 48 50 50 50 51 53 54 54 55 55 54 53 52 52 52 51 50 48
45 42 40 36 35 36 40 47 52 56 60 64 68 74 78 77 78 81 82 80 78 77 75 72 67 61 59 57 56 55 54 52 49 49 48 44 39 36 34 29 28 28 25 24 29 37 39 38 36 33 32 32 34 36 37 39 36 35 40 43 43 42 45 51 53 51 50 49 50 50 52 53 53 54 54 52 49 48 48 48 49 50 50 52 53 53 52 53 56 57 53 50 50 51 51 50 48
41 39 36 35 39 43 43 48 52 54 58 62 64 70 73 72 75 78 80 79 77 77 75 74 70 65 61 59 56 54 53 52 50 49 48 45 41 36 34 31 29 29 27 26 29 36 41 41 37 33 32 33 33 35 38 38 37 38 41 42 42 42 46 52 55 55 53 51 51 51 53 54 56 56 55 53 52 50 49 48 48 50 50 52 53 52 51 50 52 55 54 51 48 48 50 51 49
39 38 34 33 42 46 44 46 50 52 57 59 60 66 68 67 72 77 79 78 77 77 73 73 73 68 63 61 58 55 53 52 50 49 48 46 44 39 35 32 30 30 29 28 29 34 40 43 40 34 32 33 34 37 39 38 37 40 41 40 41 42 47 53 56 58 57 54 52 52 54 56 57 56 56 55 53 51 50 49 48 48 49 50 51 52 51 50 49 51 53 52 50 48 48 50 49
36 37 34 34 40 43 44 46 48 52 57 58 59 64 65 65 71 76 78 78 79 79 74 73 74 71 66 62 59 58 54 52 51 50 48 46 45 41 36 33 32 31 30 29 31 34 37 42 41 34 31 34 36 38 40 39 37 40 41 40 40 42 48 53 55 57 58 56 55 55 55 56 57 58 58 57 55 53 51 50 49 47 46 47 49 51 51 51 50 51 50 50 51 50 49 48 48
36 36 35 34 34 38 43 46 48 52 57 58 59 64 65 64 69 74 76 78 79 81 78 76 75 72 68 63 60 59 57 53 51 50 47 45 45 41 35 32 32 32 30 30 32 34 35 40 41 34 31 35 37 38 41 40 39 42 42 41 40 41 46 51 51 53 55 56 56 58 57 56 57 57 57 56 56 55 53 52 50 48 46 45 46 48 48 49 50 51 49 48 48 50 50 50 50
37 35 35 31 29 38 46 45 46 50 56 59 58 64 66 64 69 73 75 76 77 79 80 79 77 73 68 64 61 59 58 55 52 51 48 46 44 41 34 31 31 32 31 30 31 34 34 37 40 36 33 35 38 39 41 41 40 42 43 42 40 39 44 47 48 50 52 52 53 57 57 57 57 56 56 57 56 55 53 51 50 49 47 45 44 44 44 46 48 50 49 47 46 46 48 51 53
37 35 33 29 28 41 49 46 46 47 56 61 59 63 64 63 69 72 74 75 75 76 78 80 78 73 68 65 63 60 58 55 52 51 50 47 44 41 37 34 32 31 31 31 31 33 33 36 39 39 36 36 39 40 42 42 42 43 43 44 40 38 42 45 47 50 50 49 51 54 56 58 59 58 58 58 58 56 52 50 49 49 47 46 45 44 43 44 46 48 47 46 44 42 44 48 50
35 34 31 28 26 34 43 46 48 48 54 61 63 66 65 64 69 69 71 72 74 76 78 81 79 74 69 64 63 61 58 55 52 51 51 48 45 42 39 37 35 33 32 31 30 32 33 35 37 39 38 37 37 39 41 43 43 42 44 44 40 38 42 45 46 49 50 50 51 53 56 58 59 59 59 59 59 57 54 52 50 49 47 47 47 46 44 43 46 46 46 45 42 41 41 43 44
32 33 30 30 26 27 33 37 42 46 51 57 61 63 60 62 66 66 66 66 71 76 79 81 79 75 70 63 62 61 59 57 53 52 51 50 47 44 41 38 36 34 34 32 29 31 32 34 36 38 39 37 35 37 39 42 43 42 43 43 38 37 42 45 47 50 51 52 52 54 55 55 56 56 56 56 57 56 55 54 52 50 48 45 44 44 43 43 45 46 45 43 41 41 40 39 40
28 31 30 30 26 27 29 29 33 39 45 49 50 52 52 55 60 62 62 63 68 73 77 79 78 76 72 65 61 60 60 59 57 54 52 50 48 45 42 39 37 35 35 34 31 30 31 33 35 36 37 37 35 35 37 40 42 42 41 39 36 37 42 45 47 49 50 52 53 54 55 55 54 53 53 54 55 55 54 52 50 50 47 44 43 43 43 43 44 44 43 42 41 41 40 37 38
25 29 30 30 27 27 28 28 32 38 42 44 44 47 49 48 52 57 60 63 65 68 72 76 77 76 75 70 65 62 61 61 59 56 54 51 50 48 44 41 39 37 34 34 33 30 30 32 34 35 36 36 34 34 37 38 40 41 39 37 36 37 42 45 46 47 49 51 52 53 54 55 55 54 53 54 53 53 53 51 49 48 47 46 45 44 44 43 43 42 42 43 42 41 40 37 36
26 27 28 29 28 26 27 28 31 38 42 42 41 44 44 41 44 50 55 59 62 64 67 73 77 76 75 73 69 64 63 62 59 56 54 52 51 49 47 43 41 38 34 33 34 33 30 31 33 34 34 35 34 34 37 37 37 38 37 36 36 37 42 45 45 48 51 51 50 51 53 55 55 54 54 54 53 52 52 50 47 45 46 46 47 45 44 44 44 42 42 44 43 41 40 38 36
27 27 26 26 26 25 27 27 28 36 41 39 38 40 40 39 41 44 49 53 58 63 65 72 78 76 74 74 70 66 64 64 61 57 54 52 51 50 48 45 42 40 37 33 33 33 32 31 32 32 32 34 34 34 37 36 37 37 36 38 38 38 42 44 44 48 51 51 51 52 54 56 55 53 53 52 51 52 52 49 45 44 45 46 47 46 44 44 45 43 43 45 44 42 39 37 35
28 27 25 23 22 22 26 26 26 31 34 32 34 39 40 39 40 42 44 48 54 61 66 71 75 74 73 74 72 69 66 65 63 58 55 52 51 51 49 47 44 41 39 34 31 32 32 31 31 31 31 32 33 35 37 36 37 36 35 37 39 40 43 43 43 47 50 51 52 53 54 55 54 52 50 48 48 49 49 47 45 45 45 46 45 45 44 44 45 44 43 44 44 42 40 38 35
29 27 25 22 21 21 23 23 25 28 29 29 32 38 42 43 42 41 42 47 51 56 63 69 72 71 70 71 71 70 68 67 65 61 58 54 51 51 49 47 46 42 38 36 32 30 31 32 31 30 29 31 33 34 36 36 37 36 32 35 37 39 42 41 42 46 48 50 52 53 53 52 51 49 49 47 46 47 48 47 46 47 48 47 45 43 43 43 44 43 43 44 44 42 41 39 37
29 28 25 22 22 20 20 21 24 28 29 29 30 34 41 45 45 43 44 50 52 53 58 64 68 69 67 69 70 70 69 69 68 65 62 59 54 51 50 48 45 42 39 37 33 30 29 30 30 29 28 30 31 33 35 36 37 35 31 32 35 37 39 39 40 45 47 49 51 51 50 49 49 48 48 47 46 47 48 47 47 46 48 48 47 44 42 42 42 42 42 42 43 43 41 41 40
29 26 23 23 22 21 21 21 23 24 25 27 31 33 41 48 47 45 46 51 52 51 53 57 62 65 66 67 68 70 69 68 70 68 65 62 57 54 52 48 45 43 40 37 34 32 30 29 30 29 27 28 30 31 34 35 35 32 29 31 35 37 38 38 39 43 46 46 47 48 48 48 49 48 45 46 47 46 46 45 45 44 45 47 48 45 42 41 40 40 39 39 40 41 41 43 43
28 24 22 22 22 21 22 21 22 24 24 28 35 36 44 53 51 46 47 50 50 49 50 52 55 60 63 65 67 68 70 68 70 72 68 63 58 55 54 50 46 45 41 38 35 33 31 29 29 29 27 26 28 30 31 33 33 30 28 30 34 37 38 38 39 42 43 43 43 44 45 46 48 46 44 45 45 45 44 44 43 43 43 45 47 46 43 41 40 38 37 37 38 39 40 42 42
27 23 21 21 21 23 24 24 22 23 24 28 34 36 43 55 54 49 48 47 48 47 48 49 51 56 59 62 65 67 68 68 70 73 71 66 59 54 54 53 49 47 43 39 36 34 33 31 30 28 27 26 26 28 29 31 32 29 27 29 32 36 37 37 38 41 42 41 40 41 42 43 44 45 44 44 43 43 43 45 44 42 42 42 43 42 41 40 40 38 36 35 35 37 38 39 40
27 25 23 21 24 25 29 33 28 24 25 27 30 34 41 49 51 51 49 47 51 51 49 49 49 52 55 58 61 62 65 66 69 73 72 70 64 57 54 54 53 50 46 42 37 34 33 32 31 29 26 25 25 26 27 28 30 28 26 28 31 33 34 35 36 38 41 41 40 38 38 39 40 41 41 42 42 41 42 43 42 41 40 39 39 38 37 39 39 38 37 35 34 35 36 36 36
26 27 26 25 28 29 30 35 31 26 28 26 25 29 37 43 45 48 47 45 51 56 54 53 53 53 56 58 61 61 62 63 67 71 71 71 68 62 56 54 54 53 50 45 40 36 34 33 32 31 28 25 24 24 25 26 28 27 26 27 30 31 31 32 32 34 38 40 40 38 36 36 37 36 37 38 38 39 40 40 38 38 38 37 36 37 37 37 37 37 37 36 35 34 34 34 34
25 28 28 28 31 30 30 34 32 29 30 25 23 27 37 43 41 43 45 41 45 51 52 53 55 57 58 60 62 62 62 62 64 69 70 70 69 65 60 56 55 55 53 48 42 37 35 33 32 32 29 27 25 24 24 25 26 26 25 26 28 30 30 30 30 30 33 36 38 37 34 33 33 32 33 34 35 36 36 37 36 35 37 36 35 36 37 38 38 38 37 35 35 34 33 33 33
24 26 27 29 31 31 34 38 35 32 29 24 24 27 31 38 42 44 45 43 43 45 46 47 49 52 55 60 64 65 63 61 62 67 70 71 70 67 63 60 58 57 55 51 46 40 36 33 32 32 30 28 26 23 22 23 25 26 25 24 26 28 29 29 28 27 28 31 34 34 33 32 30 29 30 31 33 34 33 34 34 34 35 35 34 35 36 37 38 38 37 36 35 33 33 32 32
23 25 26 28 30 29 32 36 33 29 29 27 26 25 24 33 44 46 46 46 45 43 42 43 45 47 50 55 61 63 64 62 61 64 67 69 71 69 65 62 60 60 58 54 49 43 38 35 33 32 31 30 28 25 23 22 23 25 26 25 24 25 27 28 28 27 26 27 29 32 32 31 30 28 28 29 31 32 33 33 33 33 34 34 34 35 35 36 38 38 37 37 37 36 33 31 32
24 25 25 27 29 28 28 32 32 30 31 30 27 26 28 33 39 44 46 47 47 45 43 43 45 48 48 50 53 57 61 62 60 61 63 66 70 69 67 64 63 63 61 57 53 48 43 37 34 32 31 31 30 28 25 22 22 23 25 26 24 22 23 26 28 27 25 24 26 29 30 30 30 29 27 27 28 30 32 32 33 33 33 33 34 35 35 35 36 37 36 36 38 39 36 33 32
25 25 26 26 26 29 29 29 33 33 31 32 36 41 42 37 34 39 45 45 43 44 42 41 45 48 49 49 50 52 56 59 60 61 62 65 68 68 67 66 64 64 63 60 56 53 49 43 37 34 33 32 31 29 28 26 24 22 23 25 26 23 22 23 26 26 25 24 24 26 28 29 30 29 27 27 26 27 29 31 32 32 32 33 33 34 34 34 35 36 36 36 36 38 39 39 37
26 25 26 25 24 28 29 28 34 35 33 39 52 58 56 49 47 45 43 42 39 39 40 40 42 45 48 49 49 49 52 56 59 61 62 64 66 67 67 66 65 64 64 63 60 57 54 49 43 38 34 32 31 31 30 29 27 25 23 23 24 24 22 21 23 25 25 24 24 25 26 28 29 29 28 27 27 26 26 28 29 31 31 32 32 32 33 34 34 34 35 35 36 37 40 43 42
26 25 25 25 26 27 26 28 31 30 35 46 55 62 61 60 61 56 49 47 42 39 40 40 41 44 46 49 49 46 48 52 55 57 58 60 64 66 65 66 66 66 65 65 63 61 56 52 47 42 39 35 33 32 31 31 30 29 26 23 22 22 22 22 21 23 24 24 24 24 25 26 27 28 28 28 27 26 26 26 27 29 30 30 31 32 32 33 33 33 34 35 36 38 39 42 43
26 26 25 26 28 27 25 29 29 27 38 50 55 62 62 59 62 61 57 56 51 44 42 41 42 46 49 51 49 43 41 46 50 53 54 58 62 65 66 67 68 68 69 67 65 63 60 55 50 46 43 39 35 33 31 32 31 31 30 27 23 22 21 22 22 22 22 23 24 24 23 24 25 27 27 27 27 26 26 26 26 26 27 28 28 29 31 32 33 33 34 35 37 37 38 38 40
28 29 29 27 27 28 26 28 29 30 38 48 59 66 59 51 56 61 59 58 55 51 46 43 44 47 51 51 47 39 36 40 47 50 54 58 63 67 69 69 69 70 72 70 67 65 63 59 56 51 47 42 37 35 33 32 33 32 32 30 27 24 22 21 22 21 21 21 22 23 23 23 24 25 27 27 27 26 26 26 26 25 26 26 26 26 28 29 32 34 35 36 36 36 35 35 36
30 30 31 30 28 31 32 31 30 31 35 44 57 64 56 50 54 61 62 58 56 55 50 47 48 49 50 48 45 40 36 40 47 48 51 58 64 71 73 73 72 72 73 72 71 69 66 63 61 57 51 45 40 38 36 34 33 33 33 32 31 29 25 22 21 21 21 21 21 21 21 22 23 24 25 25 26 26 26 26 26 26 26 26 26 25 25 26 28 32 35 37 37 35 33 33 33